12-11-2023, 00:00:07,    105,    0.0,    1.3,   0.00,   0.00, 1001.4,    0.3, -999.0
12-11-2023, 00:00:17,    104,    0.0,    1.3,   0.00,   0.00, 1001.5,    0.1, -999.0
12-11-2023, 00:00:27,    105,    0.0,    1.3,   0.00,   0.00, 1001.5,    0.2, -999.0
12-11-2023, 00:00:37,    105,    0.0,    1.2,   0.00,   0.00, 1001.5,    0.2, -999.0
12-11-2023, 00:00:47,    105,    0.0,    1.2,   0.00,   0.00, 1001.5,    0.2, -999.0
12-11-2023, 00:00:57,    105,    0.0,    1.2,   0.00,   0.00, 1001.5,    0.1, -999.0
12-11-2023, 00:01:07,    105,    0.0,    1.2,   0.00,   0.00, 1001.5,    0.2, -999.0
12-11-2023, 00:01:17,    104,    0.0,    1.2,   0.00,   0.00, 1001.5,    0.3, -999.0
12-11-2023, 00:01:27,    105,    0.0,    1.1,   0.00,   0.00, 1001.5,    0.3, -999.0
12-11-2023, 00:01:37,    105,    0.0,    1.1,   0.00,   0.00, 1001.5,    0.1, -999.0
12-11-2023, 00:01:47,    104,    0.0,    1.0,   0.00,   0.00, 1001.5,    0.3, -999.0
12-11-2023, 00:01:57,    105,    0.0,    1.1,   0.00,   0.00, 1001.5,    0.3, -999.0
12-11-2023, 00:02:07,    104,    0.0,    1.1,   0.00,   0.00, 1001.5,    0.3, -999.0
12-11-2023, 00:02:17,    104,    0.0,    1.2,   0.00,   0.00, 1001.5,    0.2, -999.0
12-11-2023, 00:02:27,    105,    0.0,    1.2,   0.00,   0.00, 1001.6,    0.1, -999.0
12-11-2023, 00:02:37,    104,    0.0,    1.1,   0.00,   0.00, 1001.5,    0.2, -999.0
12-11-2023, 00:02:47,    105,    0.0,    1.0,   0.00,   0.00, 1001.5,    0.1, -999.0
12-11-2023, 00:02:57,    105,    0.0,    1.0,   0.00,   0.00, 1001.5,    0.2, -999.0
12-11-2023, 00:03:07,    105,    0.0,    1.0,   0.00,   0.00, 1001.5,    0.2, -999.0
12-11-2023, 00:03:17,    105,    0.0,    1.0,   0.00,   0.00, 1001.5,    0.2, -999.0
12-11-2023, 00:03:27,    105,    0.0,    1.0,   0.00,   0.00, 1001.5,    0.3, -999.0
12-11-2023, 00:03:37,    105,    0.0,    1.0,   0.00,   0.00, 1001.5,    0.3, -999.0
12-11-2023, 00:03:47,    104,    0.0,    1.0,   0.00,   0.00, 1001.5,    0.1, -999.0
12-11-2023, 00:03:57,    105,    0.0,    0.9,   0.00,   0.00, 1001.5,    0.2, -999.0
12-11-2023, 00:04:07,    104,    0.0,    0.8,   0.00,   0.00, 1001.5,    0.2, -999.0
12-11-2023, 00:04:17,    105,    0.0,    0.9,   0.00,   0.00, 1001.5,    0.1, -999.0
12-11-2023, 00:04:27,     95,    0.0,    1.0,   0.00,   0.00, 1001.5,    0.2, -999.0
12-11-2023, 00:04:37,    105,    0.0,    0.9,   0.00,   0.00, 1001.5,    0.2, -999.0
12-11-2023, 00:04:47,    105,    0.0,    0.8,   0.00,   0.00, 1001.5,    0.2, -999.0
12-11-2023, 00:04:57,    105,    0.0,    0.8,   0.00,   0.00, 1001.5,    0.2, -999.0
12-11-2023, 00:05:06,    105,    0.0,    0.8,   0.00,   0.00, 1001.4,    0.1, -999.0
12-11-2023, 00:05:17,    105,    0.0,    0.9,   0.00,   0.00, 1001.5,    0.2, -999.0
12-11-2023, 00:05:27,    104,    0.0,    1.0,   0.00,   0.00, 1001.5,    0.3, -999.0
12-11-2023, 00:05:37,    105,    0.0,    1.0,   0.00,   0.00, 1001.5,    0.3, -999.0
12-11-2023, 00:05:46,    105,    0.0,    1.0,   0.00,   0.00, 1001.5,    0.1, -999.0
12-11-2023, 00:05:57,    105,    0.0,    1.1,   0.00,   0.00, 1001.5,    0.2, -999.0
12-11-2023, 00:06:07,    105,    0.0,    1.1,   0.00,   0.00, 1001.5,    0.1, -999.0
12-11-2023, 00:06:16,    104,    0.0,    1.1,   0.00,   0.00, 1001.5,    0.3, -999.0
12-11-2023, 00:06:27,    105,    0.0,    1.1,   0.00,   0.00, 1001.5,    0.1, -999.0
12-11-2023, 00:06:37,    105,    0.0,    1.1,   0.00,   0.00, 1001.5,    0.1, -999.0
12-11-2023, 00:06:46,    104,    0.0,    1.0,   0.00,   0.00, 1001.5,    0.3, -999.0
12-11-2023, 00:06:56,    105,    0.0,    1.1,   0.00,   0.00, 1001.5,    0.3, -999.0
12-11-2023, 00:07:07,    105,    0.0,    1.0,   0.00,   0.00, 1001.5,    0.2, -999.0
12-11-2023, 00:07:17,    105,    0.0,    1.1,   0.00,   0.00, 1001.5,    0.2, -999.0
12-11-2023, 00:07:26,    105,    0.0,    1.1,   0.00,   0.00, 1001.5,    0.2, -999.0
12-11-2023, 00:07:36,    105,    0.0,    1.1,   0.00,   0.00, 1001.5,    0.3, -999.0
12-11-2023, 00:07:46,    105,    0.0,    1.0,   0.00,   0.00, 1001.5,    0.2, -999.0
12-11-2023, 00:07:56,    105,    0.0,    1.0,   0.00,   0.00, 1001.5,    0.3, -999.0
12-11-2023, 00:08:06,    105,    0.0,    1.0,   0.00,   0.00, 1001.5,    0.2, -999.0
12-11-2023, 00:08:16,    105,    0.0,    1.0,   0.00,   0.00, 1001.5,    0.2, -999.0
12-11-2023, 00:08:26,    105,    0.0,    1.1,   0.00,   0.00, 1001.5,    0.1, -999.0
12-11-2023, 00:08:36,    105,    0.0,    1.1,   0.00,   0.00, 1001.5,    0.2, -999.0
12-11-2023, 00:08:46,    105,    0.0,    1.1,   0.00,   0.00, 1001.5,    0.3, -999.0
12-11-2023, 00:08:56,    104,    0.0,    1.0,   0.00,   0.00, 1001.5,    0.2, -999.0
12-11-2023, 00:09:06,    105,    0.0,    1.1,   0.00,   0.00, 1001.5,    0.2, -999.0
12-11-2023, 00:09:16,    105,    0.0,    1.0,   0.00,   0.00, 1001.5,    0.2, -999.0
12-11-2023, 00:09:26,    105,    0.0,    1.1,   0.00,   0.00, 1001.6,    0.2, -999.0
12-11-2023, 00:09:36,    105,    0.0,    1.0,   0.00,   0.00, 1001.5,    0.3, -999.0
12-11-2023, 00:09:46,    104,    0.0,    1.0,   0.00,   0.00, 1001.5,    0.2, -999.0
12-11-2023, 00:09:56,    105,    0.0,    1.0,   0.00,   0.00, 1001.5,    0.2, -999.0
12-11-2023, 00:10:06,    105,    0.0,    0.9,   0.00,   0.00, 1001.6,    0.2, -999.0
12-11-2023, 00:10:16,    105,    0.0,    0.9,   0.00,   0.00, 1001.5,    0.2, -999.0
12-11-2023, 00:10:26,    104,    0.0,    1.0,   0.00,   0.00, 1001.5,    0.3, -999.0
12-11-2023, 00:10:36,    105,    0.0,    1.0,   0.00,   0.00, 1001.5,    0.3, -999.0
12-11-2023, 00:10:46,    105,    0.0,    1.0,   0.00,   0.00, 1001.5,    0.2, -999.0
12-11-2023, 00:10:56,    105,    0.0,    0.9,   0.00,   0.00, 1001.5,    0.2, -999.0
12-11-2023, 00:11:06,    104,    0.0,    0.9,   0.00,   0.00, 1001.5,    0.2, -999.0
12-11-2023, 00:11:16,    105,    0.0,    0.9,   0.00,   0.00, 1001.5,    0.3, -999.0
12-11-2023, 00:11:26,    105,    0.0,    1.0,   0.00,   0.00, 1001.5,    0.2, -999.0
12-11-2023, 00:11:36,    105,    0.0,    1.1,   0.00,   0.00, 1001.5,    0.2, -999.0
12-11-2023, 00:11:46,    105,    0.0,    1.1,   0.00,   0.00, 1001.5,    0.2, -999.0
12-11-2023, 00:11:56,    105,    0.0,    1.0,   0.00,   0.00, 1001.5,    0.3, -999.0
12-11-2023, 00:12:06,    105,    0.0,    1.0,   0.00,   0.00, 1001.5,    0.2, -999.0
12-11-2023, 00:12:16,    104,    0.0,    1.0,   0.00,   0.00, 1001.5,    0.1, -999.0
12-11-2023, 00:12:26,    105,    0.0,    1.1,   0.00,   0.00, 1001.6,    0.3, -999.0
12-11-2023, 00:12:36,    104,    0.0,    1.2,   0.00,   0.00, 1001.6,    0.0, -999.0
12-11-2023, 00:12:46,    105,    0.0,    1.1,   0.00,   0.00, 1001.5,    0.2, -999.0
12-11-2023, 00:12:56,    104,    0.0,    1.2,   0.00,   0.00, 1001.6,    0.2, -999.0
12-11-2023, 00:13:05,    104,    0.0,    1.3,   0.00,   0.00, 1001.6,    0.1, -999.0
12-11-2023, 00:13:16,    105,    0.0,    1.4,   0.00,   0.00, 1001.5,    0.3, -999.0
12-11-2023, 00:13:26,    105,    0.0,    1.5,   0.00,   0.00, 1001.5,    0.1, -999.0
12-11-2023, 00:13:35,    105,    0.0,    1.5,   0.00,   0.00, 1001.5,    0.4, -999.0
12-11-2023, 00:13:46,    105,    0.0,    1.6,   0.00,   0.00, 1001.5,    0.3, -999.0
12-11-2023, 00:13:56,    105,    0.0,    1.7,   0.00,   0.00, 1001.5,    0.3, -999.0
12-11-2023, 00:14:05,    104,    0.0,    1.7,   0.00,   0.00, 1001.5,    0.4, -999.0
12-11-2023, 00:14:15,    105,    0.0,    1.7,   0.00,   0.00, 1001.5,    0.1, -999.0
12-11-2023, 00:14:26,    105,    0.0,    1.8,   0.00,   0.00, 1001.5,    0.2, -999.0
12-11-2023, 00:14:36,    105,    0.0,    1.7,   0.00,   0.00, 1001.5,    0.1, -999.0
12-11-2023, 00:14:45,    104,    0.0,    1.8,   0.00,   0.00, 1001.5,    0.3, -999.0
12-11-2023, 00:14:55,    105,    0.0,    1.8,   0.00,   0.00, 1001.5,    0.2, -999.0
12-11-2023, 00:15:06,    105,    0.0,    1.8,   0.00,   0.00, 1001.5,    0.2, -999.0
12-11-2023, 00:15:15,    104,    0.0,    1.8,   0.00,   0.00, 1001.5,    0.3, -999.0
12-11-2023, 00:15:25,    104,    0.0,    1.7,   0.00,   0.00, 1001.5,    0.1, -999.0
12-11-2023, 00:15:35,    104,    0.0,    1.7,   0.00,   0.00, 1001.5,    0.2, -999.0
12-11-2023, 00:15:45,    104,    0.0,    1.7,   0.00,   0.00, 1001.5,    0.2, -999.0
12-11-2023, 00:15:55,    105,    0.0,    1.8,   0.00,   0.00, 1001.5,    0.3, -999.0
12-11-2023, 00:16:05,    105,    0.0,    1.8,   0.00,   0.00, 1001.5,    0.2, -999.0
12-11-2023, 00:16:15,    105,    0.0,    1.8,   0.00,   0.00, 1001.5,    0.2, -999.0
12-11-2023, 00:16:25,    105,    0.0,    1.8,   0.00,   0.00, 1001.5,    0.2, -999.0
12-11-2023, 00:16:35,    104,    0.0,    1.8,   0.00,   0.00, 1001.5,    0.3, -999.0
12-11-2023, 00:16:45,    105,    0.0,    1.9,   0.00,   0.00, 1001.5,    0.2, -999.0
12-11-2023, 00:16:55,    105,    0.0,    1.9,   0.00,   0.00, 1001.5,    0.2, -999.0
12-11-2023, 00:17:05,    104,    0.0,    2.0,   0.00,   0.00, 1001.5,    0.1, -999.0
12-11-2023, 00:17:15,    105,    0.0,    1.9,   0.00,   0.00, 1001.5,    0.2, -999.0
12-11-2023, 00:17:25,    105,    0.0,    1.9,   0.00,   0.00, 1001.5,    0.1, -999.0
12-11-2023, 00:17:35,    104,    0.0,    1.9,   0.00,   0.00, 1001.5,    0.1, -999.0
12-11-2023, 00:17:45,    105,    0.0,    1.9,   0.00,   0.00, 1001.5,    0.2, -999.0
12-11-2023, 00:17:55,    105,    0.0,    1.9,   0.00,   0.00, 1001.5,    0.3, -999.0
12-11-2023, 00:18:05,    105,    0.0,    1.9,   0.00,   0.00, 1001.5,    0.2, -999.0
12-11-2023, 00:18:15,    105,    0.0,    1.9,   0.00,   0.00, 1001.5,    0.1, -999.0
12-11-2023, 00:18:25,    105,    0.0,    1.9,   0.00,   0.00, 1001.5,    0.2, -999.0
12-11-2023, 00:18:35,    104,    0.0,    1.8,   0.00,   0.00, 1001.5,    0.1, -999.0
12-11-2023, 00:18:45,    104,    0.0,    1.9,   0.00,   0.00, 1001.4,    0.2, -999.0
12-11-2023, 00:18:55,    105,    0.0,    1.8,   0.00,   0.00, 1001.4,    0.3, -999.0
12-11-2023, 00:19:05,    105,    0.0,    1.8,   0.00,   0.00, 1001.4,    0.2, -999.0
12-11-2023, 00:19:15,    105,    0.0,    1.8,   0.00,   0.00, 1001.4,    0.2, -999.0
12-11-2023, 00:19:25,    105,    0.0,    1.7,   0.00,   0.00, 1001.4,    0.1, -999.0
12-11-2023, 00:19:35,    105,    0.0,    1.8,   0.00,   0.00, 1001.4,    0.2, -999.0
12-11-2023, 00:19:45,    104,    0.0,    1.8,   0.00,   0.00, 1001.4,    0.2, -999.0
12-11-2023, 00:19:55,    105,    0.0,    1.8,   0.00,   0.00, 1001.4,    0.3, -999.0
12-11-2023, 00:20:05,    105,    0.0,    1.8,   0.00,   0.00, 1001.4,    0.2, -999.0
12-11-2023, 00:20:14,    104,    0.0,    1.8,   0.00,   0.00, 1001.4,    0.2, -999.0
12-11-2023, 00:20:25,    104,    0.0,    1.8,   0.00,   0.00, 1001.4,    0.2, -999.0
12-11-2023, 00:20:35,    104,    0.0,    1.7,   0.00,   0.00, 1001.4,    0.3, -999.0
12-11-2023, 00:20:45,    105,    0.0,    1.7,   0.00,   0.00, 1001.4,    0.1, -999.0
12-11-2023, 00:20:54,    105,    0.0,    1.8,   0.00,   0.00, 1001.4,    0.1, -999.0
12-11-2023, 00:21:05,    105,    0.0,    1.8,   0.00,   0.00, 1001.4,    0.2, -999.0
12-11-2023, 00:21:15,    105,    0.0,    1.8,   0.00,   0.00, 1001.4,    0.1, -999.0
12-11-2023, 00:21:24,    105,    0.0,    1.9,   0.00,   0.00, 1001.4,    0.1, -999.0
12-11-2023, 00:21:34,    105,    0.0,    1.8,   0.00,   0.00, 1001.4,    0.0, -999.0
12-11-2023, 00:21:45,    105,    0.0,    1.7,   0.00,   0.00, 1001.4,    0.0, -999.0
12-11-2023, 00:21:54,    104,    0.0,    1.7,   0.00,   0.00, 1001.4,    0.0, -999.0
12-11-2023, 00:22:04,    105,    0.0,    1.7,   0.00,   0.00, 1001.4,    0.2, -999.0
12-11-2023, 00:22:14,    105,    0.0,    1.7,   0.00,   0.00, 1001.4,    0.2, -999.0
12-11-2023, 00:22:25,    105,    0.0,    1.7,   0.00,   0.00, 1001.4,    0.2, -999.0
12-11-2023, 00:22:34,    104,    0.0,    1.6,   0.00,   0.00, 1001.4,    0.3, -999.0
12-11-2023, 00:22:44,    105,    0.0,    1.6,   0.00,   0.00, 1001.4,    0.2, -999.0
12-11-2023, 00:22:54,    105,    0.0,    1.7,   0.00,   0.00, 1001.4,    0.1, -999.0
12-11-2023, 00:23:04,    105,    0.0,    1.7,   0.00,   0.00, 1001.4,    0.2, -999.0
12-11-2023, 00:23:14,    107,    0.0,    1.6,   0.00,   0.00, 1001.4,    0.3, -999.0
12-11-2023, 00:23:24,    105,    0.0,    1.6,   0.00,   0.00, 1001.4,    0.2, -999.0
12-11-2023, 00:23:34,    105,    0.0,    1.7,   0.00,   0.00, 1001.4,    0.3, -999.0
12-11-2023, 00:23:44,    105,    0.0,    1.7,   0.00,   0.00, 1001.4,    0.1, -999.0
12-11-2023, 00:23:54,    105,    0.0,    1.7,   0.00,   0.00, 1001.4,    0.1, -999.0
12-11-2023, 00:24:04,    105,    0.0,    1.7,   0.00,   0.00, 1001.4,    0.3, -999.0
12-11-2023, 00:24:14,    105,    0.0,    1.7,   0.00,   0.00, 1001.4,    0.2, -999.0
12-11-2023, 00:24:24,    104,    0.0,    1.6,   0.00,   0.00, 1001.4,    0.2, -999.0
12-11-2023, 00:24:34,    105,    0.0,    1.6,   0.00,   0.00, 1001.3,    0.2, -999.0
12-11-2023, 00:24:44,    104,    0.0,    1.6,   0.00,   0.00, 1001.4,    0.2, -999.0
12-11-2023, 00:24:54,    105,    0.0,    1.6,   0.00,   0.00, 1001.4,    0.2, -999.0
12-11-2023, 00:25:04,    104,    0.0,    1.5,   0.00,   0.00, 1001.3,    0.3, -999.0
12-11-2023, 00:25:14,    105,    0.0,    1.4,   0.00,   0.00, 1001.3,    0.2, -999.0
12-11-2023, 00:25:24,    105,    0.0,    1.5,   0.00,   0.00, 1001.3,    0.1, -999.0
12-11-2023, 00:25:34,    104,    0.0,    1.5,   0.00,   0.00, 1001.3,    0.1, -999.0
12-11-2023, 00:25:44,    105,    0.0,    1.6,   0.00,   0.00, 1001.3,    0.0, -999.0
12-11-2023, 00:25:54,    105,    0.0,    1.5,   0.00,   0.00, 1001.3,    0.0, -999.0
12-11-2023, 00:26:04,    105,    0.0,    1.5,   0.00,   0.00, 1001.3,    0.2, -999.0
12-11-2023, 00:26:14,    105,    0.0,    1.4,   0.00,   0.00, 1001.3,    0.2, -999.0
12-11-2023, 00:26:24,    105,    0.0,    1.5,   0.00,   0.00, 1001.3,    0.5, -999.0
12-11-2023, 00:26:34,    106,    0.0,    1.5,   0.00,   0.00, 1001.3,    0.2, -999.0
12-11-2023, 00:26:44,    104,    0.0,    1.5,   0.00,   0.00, 1001.3,    0.5, -999.0
12-11-2023, 00:26:53,    105,    0.0,    1.5,   0.00,   0.00, 1001.3,    0.1, -999.0
12-11-2023, 00:27:04,    105,    0.0,    1.5,   0.00,   0.00, 1001.3,    0.2, -999.0
12-11-2023, 00:27:14,    105,    0.0,    1.5,   0.00,   0.00, 1001.3,    0.3, -999.0
12-11-2023, 00:27:24,    105,    0.0,    1.5,   0.00,   0.00, 1001.3,    0.2, -999.0
12-11-2023, 00:27:33,    105,    0.0,    1.5,   0.00,   0.00, 1001.3,    0.2, -999.0
12-11-2023, 00:27:44,    105,    0.0,    1.4,   0.00,   0.00, 1001.3,    0.2, -999.0
12-11-2023, 00:27:54,    105,    0.0,    1.5,   0.00,   0.00, 1001.3,    0.2, -999.0
12-11-2023, 00:28:03,    105,    0.0,    1.5,   0.00,   0.00, 1001.2,    0.2, -999.0
12-11-2023, 00:28:13,    105,    0.0,    1.4,   0.00,   0.00, 1001.2,    0.2, -999.0
12-11-2023, 00:28:24,    105,    0.0,    1.4,   0.00,   0.00, 1001.2,    0.2, -999.0
12-11-2023, 00:28:34,    105,    0.0,    1.4,   0.00,   0.00, 1001.2,    0.3, -999.0
12-11-2023, 00:28:43,    105,    0.0,    1.4,   0.00,   0.00, 1001.2,    0.2, -999.0
12-11-2023, 00:28:53,    105,    0.0,    1.3,   0.00,   0.00, 1001.2,    0.2, -999.0
12-11-2023, 00:29:04,    105,    0.0,    1.3,   0.00,   0.00, 1001.2,    0.1, -999.0
12-11-2023, 00:29:13,    102,    0.0,    1.3,   0.00,   0.00, 1001.2,    0.3, -999.0
12-11-2023, 00:29:23,    104,    0.0,    1.2,   0.00,   0.00, 1001.2,    0.1, -999.0
12-11-2023, 00:29:34,    105,    0.0,    1.1,   0.00,   0.00, 1001.2,    0.1, -999.0
12-11-2023, 00:29:43,    104,    0.0,    1.2,   0.00,   0.00, 1001.2,    0.2, -999.0
12-11-2023, 00:29:53,    105,    0.0,    1.2,   0.00,   0.00, 1001.2,    0.2, -999.0
12-11-2023, 00:30:03,    105,    0.0,    1.2,   0.00,   0.00, 1001.2,    0.2, -999.0
12-11-2023, 00:30:13,    105,    0.0,    1.2,   0.00,   0.00, 1001.2,    0.3, -999.0
12-11-2023, 00:30:23,    105,    0.0,    1.3,   0.00,   0.00, 1001.2,    0.2, -999.0
12-11-2023, 00:30:33,    105,    0.0,    1.4,   0.00,   0.00, 1001.2,    0.3, -999.0
12-11-2023, 00:30:43,    104,    0.0,    1.3,   0.00,   0.00, 1001.2,    0.1, -999.0
12-11-2023, 00:30:53,    105,    0.0,    1.3,   0.00,   0.00, 1001.2,    0.2, -999.0
12-11-2023, 00:31:03,    105,    0.0,    1.3,   0.00,   0.00, 1001.2,    0.2, -999.0
12-11-2023, 00:31:13,    105,    0.0,    1.3,   0.00,   0.00, 1001.2,    0.3, -999.0
12-11-2023, 00:31:23,    104,    0.0,    1.2,   0.00,   0.00, 1001.2,    0.2, -999.0
12-11-2023, 00:31:33,    105,    0.0,    1.2,   0.00,   0.00, 1001.2,    0.2, -999.0
12-11-2023, 00:31:43,    105,    0.0,    1.1,   0.00,   0.00, 1001.2,    0.3, -999.0
12-11-2023, 00:31:53,    104,    0.0,    1.1,   0.00,   0.00, 1001.2,    0.3, -999.0
12-11-2023, 00:32:03,    105,    0.0,    1.1,   0.00,   0.00, 1001.2,    0.2, -999.0
12-11-2023, 00:32:13,    105,    0.0,    1.0,   0.00,   0.00, 1001.2,    0.3, -999.0
12-11-2023, 00:32:23,    105,    0.0,    0.9,   0.00,   0.00, 1001.2,    0.3, -999.0
12-11-2023, 00:32:33,    105,    0.0,    1.1,   0.00,   0.00, 1001.2,    0.2, -999.0
12-11-2023, 00:32:43,    105,    0.0,    1.1,   0.00,   0.00, 1001.2,    0.3, -999.0
12-11-2023, 00:32:53,    105,    0.0,    1.1,   0.00,   0.00, 1001.2,    0.3, -999.0
12-11-2023, 00:33:03,    105,    0.0,    1.0,   0.00,   0.00, 1001.2,    0.4, -999.0
12-11-2023, 00:33:13,    104,    0.0,    1.1,   0.00,   0.00, 1001.2,    0.5, -999.0
12-11-2023, 00:33:23,    105,    0.0,    1.1,   0.00,   0.00, 1001.3,    0.1, -999.0
12-11-2023, 00:33:33,    105,    0.0,    1.1,   0.00,   0.00, 1001.2,    0.3, -999.0
12-11-2023, 00:33:43,    105,    0.0,    1.1,   0.00,   0.00, 1001.2,    0.4, -999.0
12-11-2023, 00:33:53,    104,    0.0,    1.0,   0.00,   0.00, 1001.2,    0.2, -999.0
12-11-2023, 00:34:02,    105,    0.0,    1.0,   0.00,   0.00, 1001.2,    0.2, -999.0
12-11-2023, 00:34:13,    105,    0.0,    1.0,   0.00,   0.00, 1001.2,    0.1, -999.0
12-11-2023, 00:34:23,    105,    0.0,    1.0,   0.00,   0.00, 1001.2,    0.3, -999.0
12-11-2023, 00:34:33,    104,    0.0,    1.0,   0.00,   0.00, 1001.2,    0.0, -999.0
12-11-2023, 00:34:42,    105,    0.0,    1.0,   0.00,   0.00, 1001.2,    0.3, -999.0
12-11-2023, 00:34:53,    105,    0.0,    0.9,   0.00,   0.00, 1001.2,    0.2, -999.0
12-11-2023, 00:35:03,    105,    0.0,    1.0,   0.00,   0.00, 1001.2,    0.3, -999.0
12-11-2023, 00:35:12,    102,    0.0,    0.8,   0.00,   0.00, 1001.2,    0.2, -999.0
12-11-2023, 00:35:22,    105,    0.0,    0.9,   0.00,   0.00, 1001.2,    0.2, -999.0
12-11-2023, 00:35:33,    105,    0.0,    0.9,   0.00,   0.00, 1001.2,    0.4, -999.0
12-11-2023, 00:35:42,    105,    0.0,    0.7,   0.00,   0.00, 1001.3,    0.3, -999.0
12-11-2023, 00:35:52,    105,    0.0,    0.8,   0.00,   0.00, 1001.3,    0.3, -999.0
12-11-2023, 00:36:02,    105,    0.0,    0.8,   0.00,   0.00, 1001.3,    0.0, -999.0
12-11-2023, 00:36:13,    105,    0.0,    0.8,   0.00,   0.01, 1001.2,    0.0, -999.0
12-11-2023, 00:36:22,    105,    0.0,    0.8,   0.00,   0.00, 1001.3,    0.4, -999.0
12-11-2023, 00:36:32,    105,    0.0,    0.8,   0.00,   0.00, 1001.3,    0.1, -999.0
12-11-2023, 00:36:43,    105,    0.0,    0.8,   0.00,   0.00, 1001.3,    0.2, -999.0
12-11-2023, 00:36:52,    105,    0.0,    0.7,   0.00,   0.00, 1001.2,    0.2, -999.0
12-11-2023, 00:37:02,    105,    0.0,    0.8,   0.00,   0.00, 1001.3,    0.2, -999.0
12-11-2023, 00:37:12,    105,    0.0,    0.8,   0.00,   0.00, 1001.3,    0.2, -999.0
12-11-2023, 00:37:22,    104,    0.0,    0.7,   0.00,   0.00, 1001.3,    0.3, -999.0
12-11-2023, 00:37:32,    104,    0.0,    0.8,   0.00,   0.00, 1001.2,    0.2, -999.0
12-11-2023, 00:37:42,    105,    0.0,    0.8,   0.00,   0.00, 1001.3,    0.2, -999.0
12-11-2023, 00:37:52,    105,    0.0,    0.7,   0.00,   0.00, 1001.3,    0.2, -999.0
12-11-2023, 00:38:02,    105,    0.0,    0.7,   0.00,   0.00, 1001.3,    0.1, -999.0
12-11-2023, 00:38:12,    104,    0.0,    0.7,   0.00,   0.00, 1001.3,    0.1, -999.0
12-11-2023, 00:38:22,    105,    0.0,    0.8,   0.00,   0.00, 1001.3,    0.3, -999.0
12-11-2023, 00:38:32,    105,    0.0,    0.8,   0.00,   0.00, 1001.3,    0.3, -999.0
12-11-2023, 00:38:42,    105,    0.0,    0.8,   0.00,   0.00, 1001.3,    0.2, -999.0
12-11-2023, 00:38:52,    105,    0.0,    0.7,   0.00,   0.00, 1001.3,    0.3, -999.0
12-11-2023, 00:39:02,    105,    0.0,    0.6,   0.00,   0.00, 1001.3,    0.3, -999.0
12-11-2023, 00:39:12,    105,    0.0,    0.7,   0.00,   0.00, 1001.3,    0.3, -999.0
12-11-2023, 00:39:22,    105,    0.0,    0.7,   0.00,   0.00, 1001.3,    0.3, -999.0
12-11-2023, 00:39:32,    105,    0.0,    0.8,   0.00,   0.00, 1001.3,    0.2, -999.0
12-11-2023, 00:39:42,    105,    0.0,    0.9,   0.00,   0.00, 1001.3,    0.2, -999.0
12-11-2023, 00:39:52,    105,    0.0,    0.8,   0.00,   0.00, 1001.3,    0.3, -999.0
12-11-2023, 00:40:02,    105,    0.0,    0.9,   0.00,   0.00, 1001.3,    0.2, -999.0
12-11-2023, 00:40:12,    105,    0.0,    0.8,   0.00,   0.00, 1001.3,    0.2, -999.0
12-11-2023, 00:40:22,    104,    0.0,    0.9,   0.00,   0.00, 1001.4,    0.1, -999.0
12-11-2023, 00:40:32,    105,    0.0,    0.8,   0.00,   0.00, 1001.4,    0.0, -999.0
12-11-2023, 00:40:42,    105,    0.0,    0.8,   0.00,   0.00, 1001.4,    0.2, -999.0
12-11-2023, 00:40:52,    105,    0.0,    0.8,   0.00,   0.00, 1001.4,    0.2, -999.0
12-11-2023, 00:41:02,    105,    0.0,    0.8,   0.00,   0.00, 1001.4,    0.2, -999.0
12-11-2023, 00:41:12,    105,    0.0,    0.8,   0.00,   0.00, 1001.4,    0.2, -999.0
12-11-2023, 00:41:22,    105,    0.0,    0.8,   0.00,   0.00, 1001.4,    0.1, -999.0
12-11-2023, 00:41:32,    105,    0.0,    0.8,   0.00,   0.00, 1001.4,    0.2, -999.0
12-11-2023, 00:41:42,    105,    0.0,    0.7,   0.00,   0.00, 1001.4,    0.2, -999.0
12-11-2023, 00:41:51,    105,    0.0,    0.7,   0.00,   0.00, 1001.4,    0.1, -999.0
12-11-2023, 00:42:02,    104,    0.0,    0.7,   0.00,   0.00, 1001.4,    0.2, -999.0
12-11-2023, 00:42:12,    106,    0.0,    0.7,   0.00,   0.00, 1001.4,    0.3, -999.0
12-11-2023, 00:42:21,    104,    0.0,    0.7,   0.00,   0.00, 1001.4,    0.1, -999.0
12-11-2023, 00:42:32,    105,    0.0,    0.7,   0.00,   0.00, 1001.4,    0.3, -999.0
12-11-2023, 00:42:42,    105,    0.0,    0.8,   0.00,   0.00, 1001.4,    0.2, -999.0
12-11-2023, 00:42:51,    105,    0.0,    0.8,   0.00,   0.00, 1001.4,    0.3, -999.0
12-11-2023, 00:43:01,    105,    0.0,    0.8,   0.00,   0.00, 1001.4,    0.2, -999.0
12-11-2023, 00:43:12,    105,    0.0,    0.9,   0.00,   0.00, 1001.4,    0.2, -999.0
12-11-2023, 00:43:22,    104,    0.0,    0.8,   0.00,   0.00, 1001.4,    0.2, -999.0
12-11-2023, 00:43:31,    104,    0.0,    0.8,   0.00,   0.00, 1001.4,    0.2, -999.0
12-11-2023, 00:43:41,    105,    0.0,    0.9,   0.00,   0.00, 1001.4,    0.1, -999.0
12-11-2023, 00:43:52,    105,    0.0,    0.8,   0.00,   0.00, 1001.4,    0.1, -999.0
12-11-2023, 00:44:01,    105,    0.0,    0.7,   0.00,   0.00, 1001.4,    0.1, -999.0
12-11-2023, 00:44:11,    124,    0.0,    0.9,   0.00,   0.00, 1001.4,    0.1, -999.0
12-11-2023, 00:44:21,    125,    0.0,    1.1,   0.00,   0.00, 1001.4,    0.1, -999.0
12-11-2023, 00:44:31,    124,    0.0,    1.2,   0.00,   0.00, 1001.4,    0.2, -999.0
12-11-2023, 00:44:41,    125,    0.0,    1.2,   0.00,   0.00, 1001.4,    0.3, -999.0
12-11-2023, 00:44:51,    124,    0.0,    1.2,   0.00,   0.00, 1001.4,    0.6, -999.0
12-11-2023, 00:45:01,    125,    0.0,    1.3,   0.00,   0.00, 1001.4,    0.3, -999.0
12-11-2023, 00:45:11,    125,    0.0,    1.3,   0.00,   0.00, 1001.5,    0.3, -999.0
12-11-2023, 00:45:21,    124,    0.0,    1.3,   0.00,   0.00, 1001.4,    0.1, -999.0
12-11-2023, 00:45:31,    125,    0.0,    1.2,   0.00,   0.00, 1001.4,    0.2, -999.0
12-11-2023, 00:45:41,    125,    0.0,    1.3,   0.00,   0.00, 1001.4,    0.3, -999.0
12-11-2023, 00:45:51,    125,    0.0,    1.3,   0.00,   0.00, 1001.4,    0.1, -999.0
12-11-2023, 00:46:01,    125,    0.0,    1.4,   0.00,   0.00, 1001.4,    0.2, -999.0
12-11-2023, 00:46:11,    125,    0.0,    1.6,   0.00,   0.00, 1001.4,    0.3, -999.0
12-11-2023, 00:46:21,    125,    0.0,    1.5,   0.00,   0.00, 1001.4,    0.1, -999.0
12-11-2023, 00:46:31,    124,    0.0,    1.5,   0.00,   0.00, 1001.4,    0.4, -999.0
12-11-2023, 00:46:41,    125,    0.0,    1.6,   0.00,   0.00, 1001.4,    0.2, -999.0
12-11-2023, 00:46:51,    125,    0.0,    1.6,   0.00,   0.00, 1001.4,    0.2, -999.0